[[{"header":{"parameterUnit":"m.s-1","parameterCategory":1,"la1":30.2991,"la2":30.254,"lo1":-89.0895,"lo2":-89.0444,"dy":0.0017,"dx":0.0017,"nx":28,"ny":28,"refTime":"2026-02-26T03:00:00:Z","depth":0,"parameterNumber":2,"parameterNumberName":"U-component_of_WINDS"},"data":[0,0,0,0,0,0,0,0,0,0,0,0,0,0,0,0,0,0,0,0,0,0,0,0,0,0,0,0,0,0,0,0,0,0,0,0,0,0,0,0,0,0,0,0,0,0,0,0,0,0,0,0,0,0,0,0,0,0,1.1209,1.121,0,1.1267,1.1268,1.1269,1.1287,1.1286,1.1286,1.1286,1.1351,1.1353,1.1355,0,0,0,0,0,0,0,0,0,0,0,0,0,1.1118,1.112,1.1209,1.121,1.121,1.1267,1.1268,1.1269,1.1287,1.1286,1.1286,1.1286,1.135,1.1353,1.1355,0,0,0,0,0,0,0,0,0,0,0,0,0,1.1165,1.112,1.1209,1.1226,1.1228,1.1267,1.1268,1.1269,1.1287,1.1286,1.1286,1.1286,1.1349,1.1352,1.1355,1.1383,0,0,1.1364,1.1366,0,0,0,0,0,0,0,0,1.1163,1.1169,1.1223,1.1225,1.1227,1.1269,1.126,1.1307,1.1287,1.1265,1.1286,1.1285,1.1324,1.1329,1.1342,1.1386,1.1389,1.1365,1.1367,1.1368,1.1369,0,0,0,0,0,0,0,1.1159,1.1166,1.1232,1.1224,1.1226,1.1233,1.1239,1.1269,1.1297,1.1267,1.1268,1.1274,1.1326,1.1339,1.1343,1.139,1.1365,1.1367,1.1369,1.137,1.1461,1.1462,0,0,0,0,0,0,1.1152,1.1163,1.123,1.1234,1.1193,1.1235,1.1241,1.1256,1.1296,1.1302,1.1275,1.1275,1.1334,1.134,1.1346,1.1381,1.1368,1.1371,1.1372,1.146,1.1461,1.1462,0,0,0,0,0,0,1.115,1.1158,1.1228,1.1199,1.1208,1.1237,1.1253,1.1258,1.1271,1.1302,1.1308,1.1283,1.1334,1.1341,1.1373,1.1384,1.1372,1.1375,1.146,1.1461,1.1461,1.1452,0,0,0,0,0,0,1.1148,1.1157,1.1167,1.1199,1.121,1.1253,1.1254,1.1259,1.1275,1.1276,1.1311,1.1317,1.1334,1.1369,1.1376,1.1388,1.1377,1.1459,1.146,1.1461,1.1452,1.1453,1.1453,0,0,0,0,0,1.1144,1.1163,1.1167,1.1175,1.1222,1.1253,1.126,1.1278,1.1276,1.1286,1.1307,1.1315,1.1381,1.1372,1.1381,1.1393,1.1458,1.146,1.1461,1.1451,1.1452,1.1453,0,0,0,0,0,0,1.1132,1.1167,1.1172,1.1201,1.1224,1.1256,1.127,1.1278,1.1304,1.1304,1.1326,1.1334,1.1365,1.1382,1.1371,1.1422,1.142,1.1423,1.141,1.1411,1.1412,1.1408,1.138,0,0,0,0,0,1.1133,1.1154,1.1184,1.1207,1.1218,1.1242,1.1256,1.1268,1.1293,1.1304,1.1327,1.1352,1.1379,1.1396,1.1422,1.1454,1.1463,1.1467,1.1468,1.1469,1.1471,1.1491,1.1493,1.1466,1.1466,1.1466,0,0,1.1134,1.1156,1.1168,1.1205,1.1224,1.1247,1.125,1.1274,1.1292,1.1308,1.1339,1.1357,1.1387,1.142,1.1435,1.1435,1.1481,1.147,1.147,1.1473,1.1493,1.1495,1.1497,1.1467,1.1467,1.1467,0,0,1.1149,1.1167,1.1188,1.1207,1.1235,1.1252,1.1257,1.1288,1.13,1.1331,1.1344,1.1367,1.1412,1.1433,1.145,1.1473,1.1483,1.1481,1.1486,1.1505,1.1507,1.1509,1.1519,1.1522,1.1484,1.1484,1.1484,0,1.1148,1.1182,1.1199,1.1222,1.1239,1.1252,1.1275,1.1293,1.1329,1.1341,1.134,1.1397,1.1419,1.1457,1.1462,1.1475,1.1483,1.1478,1.1505,1.1507,1.151,1.1519,1.1522,1.1483,1.1483,1.1484,1.1484,0,1.118,1.1203,1.1217,1.125,1.1268,1.1291,1.1313,1.133,1.134,1.1357,1.139,1.1416,1.1448,1.1458,1.1469,1.1498,1.1497,1.15,1.1499,1.1512,1.1521,1.1525,1.1483,1.1483,1.1483,1.1483,0,0,1.1189,1.1231,1.1236,1.1251,1.1284,1.1303,1.1328,1.1357,1.1372,1.1396,1.1419,1.1456,1.146,1.1479,1.1492,1.1509,1.1527,1.151,1.1511,1.1513,1.1562,1.156,1.1564,1.1533,1.1534,1.1534,1.156,0,1.1208,1.1251,1.1267,1.1303,1.1325,1.1339,1.1361,1.1384,1.1401,1.1424,1.1443,1.1469,1.1471,1.1483,1.15,1.1521,1.1537,1.1519,1.1556,1.1557,1.1548,1.1569,1.1567,1.159,1.1564,1.1564,1.1565,0,1.1237,1.1261,1.1298,1.1328,1.1338,1.1357,1.1386,1.1408,1.1435,1.1446,1.1467,1.148,1.1508,1.1504,1.1544,1.1532,1.1548,1.1561,1.1562,1.1567,1.1562,1.1575,1.1597,1.1601,1.1571,1.157,1.157,0,1.1241,1.1282,1.131,1.1323,1.1359,1.1372,1.1388,1.1415,1.1432,1.1458,1.147,1.1499,1.1516,1.1539,1.156,1.1555,1.1599,1.1597,1.1611,1.161,1.162,1.1619,1.1646,1.1629,1.1629,1.1628,1.1628,0,1.1262,1.1284,1.1312,1.133,1.1356,1.1375,1.1401,1.1418,1.1442,1.1464,1.1479,1.15,1.1526,1.155,1.1567,1.1599,1.1606,1.1617,1.1622,1.1616,1.1615,1.1628,1.1627,1.1629,1.1629,1.1629,1.1629,0,1.1271,1.129,1.1322,1.1353,1.1361,1.138,1.1407,1.1426,1.1443,1.1471,1.1479,1.1506,1.1536,1.1559,1.1599,1.161,1.1644,1.1648,1.1634,1.1636,1.1649,1.1648,1.1686,1.1693,1.167,1.167,1.167,0,1.1283,1.1301,1.1334,1.1349,1.1364,1.1388,1.1406,1.1426,1.1444,1.1477,1.1492,1.1522,1.1548,1.1595,1.162,1.1651,1.1657,1.1668,1.1661,1.1656,1.1658,1.1657,1.166,1.1669,1.1669,1.1669,1.1669,0,1.1303,1.1312,1.1336,1.1363,1.1383,1.1406,1.1429,1.1441,1.1466,1.1486,1.1515,1.1535,1.1575,1.1606,1.1639,1.1658,1.1668,1.1671,1.1676,1.1671,1.1663,1.1668,1.1637,1.167,1.167,1.167,1.167,1.167,1.1315,1.1332,1.1357,1.1384,1.1403,1.1425,1.1443,1.1463,1.1487,1.152,1.1531,1.1563,1.1591,1.1636,1.1655,1.1681,1.1682,1.1689,1.1691,1.1693,1.1693,1.1657,1.1687,1.1688,1.1688,1.1688,1.1688,0,1.1337,1.1354,1.1378,1.1409,1.1431,1.1437,1.1463,1.1481,1.1508,1.1532,1.1557,1.1592,1.1623,1.165,1.1681,1.1697,1.1703,1.1705,1.1705,1.1709,1.169,1.1683,1.17,1.17,1.17,1.17,1.17,1.17,1.1351,1.1379,1.1391,1.1431,1.1448,1.1478,1.1492,1.1513,1.1533,1.1571,1.1596,1.1612,1.1639,1.1673,1.1701,1.1709,1.1721,1.1722,1.173,1.1712,1.171,1.1709,1.1702,1.1724,1.1724,1.1748,1.1748,1.1748]},{"header":{"parameterUnit":"m.s-1","parameterCategory":1,"la1":30.2991,"la2":30.254,"lo1":-89.0895,"lo2":-89.0444,"dy":0.0017,"dx":0.0017,"nx":28,"ny":28,"refTime":"2026-02-26T03:00:00:Z","depth":0,"parameterNumber":3,"parameterNumberName":"V-component_of_WINDS"},"data":[0,0,0,0,0,0,0,0,0,0,0,0,0,0,0,0,0,0,0,0,0,0,0,0,0,0,0,0,0,0,0,0,0,0,0,0,0,0,0,0,0,0,0,0,0,0,0,0,0,0,0,0,0,0,0,0,0,0,4.454,4.4541,0,4.4698,4.4699,4.4701,4.475,4.4749,4.4749,4.4748,4.4909,4.4913,4.4918,0,0,0,0,0,0,0,0,0,0,0,0,0,4.4282,4.4287,4.454,4.4542,4.4544,4.4697,4.4699,4.4702,4.475,4.4749,4.4748,4.4747,4.4907,4.4913,4.4919,0,0,0,0,0,0,0,0,0,0,0,0,0,4.4412,4.4288,4.4539,4.4586,4.4592,4.4697,4.47,4.4702,4.475,4.4749,4.4748,4.4747,4.4905,4.4912,4.492,4.4989,0,0,4.4943,4.4946,0,0,0,0,0,0,0,0,4.4405,4.4422,4.4577,4.4583,4.459,4.4703,4.4668,4.4798,4.4751,4.469,4.4748,4.4746,4.4841,4.4854,4.4886,4.4996,4.5003,4.4943,4.4948,4.4951,4.4953,0,0,0,0,0,0,0,4.4396,4.4415,4.4602,4.458,4.4587,4.46,4.4617,4.4693,4.477,4.4695,4.4699,4.4717,4.4844,4.4878,4.489,4.5006,4.4943,4.495,4.4954,4.4957,4.5184,4.5186,0,0,0,0,0,0,4.4379,4.4407,4.4597,4.4607,4.4493,4.4606,4.4625,4.4668,4.4769,4.4784,4.4718,4.4719,4.4866,4.4881,4.4896,4.4986,4.4951,4.4958,4.4962,4.5183,4.5185,4.5186,0,0,0,0,0,0,4.4373,4.4395,4.4591,4.4508,4.4534,4.4611,4.4659,4.4672,4.4706,4.4787,4.4801,4.4739,4.4866,4.4885,4.4966,4.4992,4.4961,4.4968,4.5181,4.5183,4.5185,4.5166,0,0,0,0,0,0,4.4365,4.4393,4.4419,4.4509,4.4538,4.4658,4.4661,4.4675,4.4719,4.4721,4.481,4.4823,4.4867,4.4955,4.4974,4.5002,4.4974,4.5179,4.5182,4.5185,4.5164,4.5167,4.5169,0,0,0,0,0,4.4356,4.4406,4.442,4.4443,4.4573,4.4659,4.4677,4.4725,4.472,4.4749,4.4801,4.4821,4.4986,4.4963,4.4984,4.5015,4.5178,4.5181,4.5185,4.5163,4.5166,4.5169,0,0,0,0,0,0,4.4317,4.4419,4.4435,4.4516,4.4579,4.4667,4.4704,4.4727,4.4792,4.4792,4.4849,4.4869,4.4946,4.4989,4.4961,4.5089,4.5083,4.5091,4.5059,4.5063,4.5065,4.5054,4.498,0,0,0,0,0,4.4318,4.4379,4.4465,4.4528,4.4559,4.4626,4.4665,4.4698,4.4765,4.4792,4.485,4.4914,4.4981,4.5024,4.509,4.517,4.5192,4.5202,4.5205,4.5206,4.5213,4.5262,4.5269,4.5198,4.5198,4.5198,0,0,4.432,4.4384,4.4419,4.4522,4.4574,4.4638,4.4648,4.4713,4.4762,4.4801,4.4883,4.4927,4.5003,4.5085,4.5124,4.5123,4.5238,4.5211,4.5212,4.5218,4.5266,4.5273,4.5279,4.52,4.52,4.5199,0,0,4.4358,4.441,4.4471,4.4523,4.4603,4.4648,4.4662,4.4749,4.478,4.4863,4.4895,4.4953,4.5066,4.512,4.5162,4.5222,4.5244,4.5242,4.5256,4.5302,4.5308,4.5313,4.5338,4.5345,4.5248,4.5248,4.5248,0,4.4351,4.4447,4.4498,4.4564,4.4609,4.4649,4.4712,4.476,4.4857,4.4888,4.4885,4.5031,4.5084,4.5181,4.5196,4.5228,4.5248,4.5233,4.5303,4.5309,4.5315,4.5339,4.5347,4.5248,4.5248,4.5248,4.5248,0,4.4436,4.4503,4.4542,4.4636,4.4686,4.4749,4.4811,4.4855,4.4884,4.4929,4.5014,4.508,4.5161,4.5186,4.5214,4.5288,4.5285,4.5292,4.5287,4.532,4.5344,4.5353,4.5247,4.5247,4.5247,4.5247,0,0,4.4453,4.4576,4.459,4.4635,4.4727,4.478,4.4846,4.4926,4.4964,4.503,4.5088,4.5184,4.5193,4.524,4.5275,4.5316,4.5363,4.5318,4.5321,4.5327,4.5452,4.5448,4.5457,4.5377,4.5379,4.5381,4.5446,0,4.4504,4.4624,4.4673,4.4771,4.4834,4.4874,4.4932,4.4996,4.504,4.5101,4.515,4.5219,4.5223,4.5252,4.5295,4.5348,4.5389,4.5344,4.5434,4.5436,4.5416,4.5469,4.5465,4.5523,4.5456,4.5457,4.5458,0,4.4579,4.4648,4.4752,4.4839,4.4868,4.4919,4.4999,4.5056,4.5129,4.5159,4.5214,4.5246,4.5318,4.5308,4.5409,4.5377,4.5416,4.5449,4.5452,4.5464,4.5451,4.5485,4.5543,4.5553,4.5473,4.5472,4.5471,0,4.4585,4.4702,4.4781,4.4817,4.492,4.4956,4.5001,4.5073,4.5119,4.5189,4.522,4.5296,4.5338,4.5396,4.5449,4.5436,4.5547,4.554,4.5575,4.5574,4.5598,4.5596,4.5665,4.5619,4.5619,4.5619,4.5619,0,4.4638,4.4701,4.4785,4.4834,4.4906,4.4962,4.5033,4.508,4.5144,4.5204,4.5242,4.5297,4.5362,4.5426,4.5467,4.5547,4.5565,4.5592,4.5603,4.559,4.5587,4.5618,4.5616,4.5621,4.5621,4.562,4.562,0,4.4656,4.4715,4.4804,4.4895,4.492,4.4969,4.5048,4.5097,4.5144,4.5219,4.5239,4.5313,4.539,4.5449,4.5548,4.5576,4.5661,4.5671,4.5637,4.5643,4.5676,4.5673,4.577,4.5786,4.5726,4.5727,4.5727,0,4.4687,4.4737,4.4834,4.4877,4.4922,4.499,4.5038,4.5096,4.5145,4.5234,4.5273,4.5353,4.542,4.5542,4.5604,4.5681,4.5695,4.5723,4.5707,4.5693,4.5699,4.5696,4.5703,4.5726,4.5726,4.5727,4.5727,0,4.4737,4.4765,4.4833,4.4912,4.4969,4.5034,4.5099,4.5132,4.5202,4.5255,4.5335,4.5387,4.549,4.557,4.5654,4.57,4.5726,4.5732,4.5745,4.5733,4.5712,4.5727,4.5645,4.573,4.5729,4.5729,4.5729,4.5729,4.4765,4.4813,4.4889,4.4965,4.5021,4.5082,4.5134,4.5188,4.5256,4.5345,4.5375,4.5458,4.5533,4.5648,4.5695,4.5762,4.5762,4.578,4.5785,4.5789,4.579,4.57,4.5777,4.5777,4.5777,4.5777,4.5777,0,4.482,4.4872,4.494,4.5032,4.5092,4.5111,4.5186,4.5235,4.5308,4.5375,4.5442,4.5535,4.5613,4.5682,4.5764,4.5804,4.5818,4.5824,4.5823,4.5834,4.5783,4.5765,4.5811,4.5811,4.5811,4.5811,4.5811,4.5811,4.4855,4.4937,4.4974,4.5085,4.5137,4.522,4.5261,4.5318,4.5373,4.5476,4.5541,4.5586,4.5656,4.5743,4.5816,4.5835,4.5864,4.5867,4.5889,4.5841,4.5837,4.5833,4.5816,4.5872,4.5872,4.5934,4.5935,4.5935]}]]